CW0728 Weather Reports


time (UTC)temp
F
wind
direction
speed
knots
gust
knots
rain 1hr
in
rain 24hr
in
rain mn
in
humidity
%
barometer
mb
20260906153044 68 184 0.0 7.8 0.00 0.07 0.04 45 1013.5
20260906151518 68 20 0.0 6.1 0.00 0.07 0.04 47 1013.6
20260906150108 68 46 2.6 8.7 0.00 0.07 0.04 49 1013.7
20260906144543 66 59 2.6 8.7 0.00 0.07 0.04 51 1013.8
20260906143013 65 216 0.0 7.8 0.00 0.07 0.04 55 1013.8
20260906141550 64 88 0.9 8.7 0.00 0.07 0.04 63 1013.9
20260906140023 62 59 0.0 7.8 0.00 0.07 0.04 68 1014.0
20260906134556 60 16 0.0 3.5 0.00 0.07 0.04 74 1013.8
20260906133106 59 348 0.0 0.0 0.00 0.07 0.04 80 1013.7
20260906131515 59 328 0.0 0.0 0.00 0.07 0.04 84 1013.9
20260906130106 58 25 0.0 0.0 0.00 0.07 0.04 86 1013.8
20260906124526 58 360 0.0 0.0 0.00 0.07 0.04 86 1013.9
20260906123001 57 11 0.0 0.0 0.00 0.07 0.04 87 1014.0
20260906121542 56 61 0.0 0.0 0.00 0.07 0.04 89 1014.0
20260906120016 56 112 0.0 0.0 0.00 0.07 0.04 92 1014.0
20260906114553 55 317 0.0 0.0 0.00 0.07 0.04 93 1013.7
20260906113042 55 39 0.0 0.0 0.00 0.07 0.04 92 1013.6
20260906111515 55 51 0.0 0.0 0.02 0.07 0.04 92 1013.5
20260906110057 55 51 0.0 0.0 0.03 0.07 0.04 91 1013.4
20260906104528 55 286 0.0 0.0 0.04 0.07 0.04 91 1013.4
20260906103006 55 42 0.0 1.7 0.03 0.06 0.03 90 1013.4
20260906101545 55 61 0.0 0.9 0.02 0.05 0.02 89 1013.4
20260906100035 55 26 0.0 0.0 0.01 0.04 0.01 88 1013.2
20260906094511 55 38 0.0 0.0 0.00 0.03 0.00 87 1013.0
20260906093048 55 57 0.0 0.0 0.00 0.03 0.00 88 1012.9
20260906091526 55 36 0.0 0.0 0.00 0.03 0.00 87 1012.6
20260906090100 56 317 0.0 0.0 0.00 0.03 0.00 87 1012.7
20260906084535 56 317 0.0 0.0 0.00 0.03 0.00 87 1012.7
20260906083021 55 63 0.0 0.0 0.00 0.03 0.00 87 1012.5
20260906081508 55 67 0.0 0.0 0.00 0.03 0.00 89 1012.5
20260906080047 54 48 0.0 0.0 0.00 0.03 0.00 89 1012.2
20260906074532 54 46 0.0 0.0 0.00 0.03 0.00 89 1012.5
20260906073006 54 46 0.0 0.0 0.00 0.03 0.00 89 1012.7
20260906071542 54 46 0.0 0.0 0.00 0.03 0.00 89 1012.4
20260906070017 54 46 0.0 0.0 0.00 0.03 0.00 89 1012.2
20260906064554 54 46 0.0 0.0 0.00 0.03 0.00 88 1012.1
20260906063040 54 46 0.0 0.0 0.00 0.03 0.00 88 1012.0
20260906061516 54 46 0.0 0.0 0.00 0.03 0.00 87 1012.0
20260906060056 55 46 0.0 0.0 0.00 0.03 0.00 86 1012.1
20260906054542 55 46 0.0 0.0 0.00 0.03 0.00 86 1012.1
20260906053005 55 46 0.0 0.0 0.00 0.03 0.00 85 1012.1
20260906051603 56 46 0.0 0.0 0.00 0.03 0.00 84 1012.0
20260906050017 56 46 0.0 0.0 0.00 0.03 0.00 83 1012.1
20260906044603 56 46 0.0 0.0 0.00 0.03 0.00 83 1011.9
20260906043043 56 331 0.0 0.0 0.00 0.03 0.00 83 1011.9
20260906041513 57 92 0.0 0.0 0.00 0.03 0.00 82 1012.0
20260906040125 57 92 0.0 0.0 0.00 0.03 0.03 81 1012.0
20260906034524 58 97 0.0 0.0 0.00 0.03 0.03 81 1011.9
20260906033030 59 97 0.0 0.0 0.00 0.03 0.03 79 1011.9
20260906031549 59 97 0.0 0.0 0.00 0.03 0.03 78 1011.8
20260906030032 60 104 0.0 0.0 0.00 0.03 0.03 78 1011.7
20260906024505 60 113 0.0 0.0 0.00 0.03 0.03 78 1011.6
20260906023043 60 89 0.0 0.0 0.00 0.03 0.03 78 1011.5
20260906021516 59 28 0.0 0.0 0.00 0.03 0.03 80 1011.4
20260906020055 59 53 0.0 0.0 0.00 0.03 0.03 81 1011.3
20260906014530 58 314 0.0 0.0 0.00 0.03 0.03 82 1011.5
20260906013018 59 95 0.0 0.0 0.00 0.03 0.03 80 1011.4
20260906011548 60 95 0.0 0.0 0.00 0.03 0.03 78 1011.4
20260906010034 61 95 0.0 0.0 0.00 0.03 0.03 77 1011.4
20260906004519 62 95 0.0 0.0 0.00 0.03 0.03 75 1011.3
20260906003056 62 95 0.0 0.0 0.00 0.03 0.03 74 1011.1
20260906001533 62 95 0.0 0.0 0.00 0.03 0.03 73 1011.0
20260906000006 62 56 0.0 0.0 0.00 0.03 0.03 76 1011.0
20260905234546 61 140 0.0 0.0 0.00 0.03 0.03 82 1010.9
20260905233025 62 140 0.0 0.0 0.00 0.03 0.03 84 1010.7
20260905231504 63 140 0.0 0.0 0.00 0.03 0.03 83 1010.6
20260905230039 64 140 0.0 0.0 0.00 0.03 0.03 81 1010.5
20260905224532 65 140 0.0 0.0 0.00 0.03 0.03 79 1010.5
20260905223055 66 140 0.0 0.0 0.00 0.03 0.03 78 1010.3
20260905221536 66 140 0.0 0.0 0.00 0.03 0.03 75 1010.2
20260905220019 67 140 0.0 0.0 0.00 0.03 0.03 73 1010.0
20260905214551 68 208 0.0 0.0 0.00 0.03 0.03 71 1009.9
20260905213027 72 87 0.0 0.0 0.00 0.03 0.03 59 1009.7
20260905211508 71 121 0.0 0.0 0.00 0.03 0.03 63 1009.6
20260905210049 68 83 0.0 0.0 0.00 0.03 0.03 68 1009.4
20260905204516 68 160 0.0 0.0 0.00 0.03 0.03 73 1009.3
20260905203056 68 102 0.0 0.0 0.00 0.03 0.03 72 1009.2
20260905201541 68 196 0.0 0.0 0.00 0.03 0.03 74 1009.1
20260905200028 68 134 0.0 0.0 0.00 0.03 0.03 73 1009.1
20260905194505 70 183 0.0 0.0 0.00 0.03 0.03 70 1009.1
20260905193043 71 119 0.0 0.0 0.00 0.03 0.03 71 1009.0
20260905191517 73 145 0.0 0.0 0.00 0.03 0.03 63 1009.0
20260905190052 72 103 0.0 0.0 0.00 0.03 0.03 61 1009.0
20260905184547 71 80 0.0 1.7 0.00 0.03 0.03 64 1008.9
20260905183011 69 104 0.0 4.3 0.00 0.03 0.03 68 1008.9
20260905181548 69 84 0.0 3.5 0.00 0.03 0.03 68 1009.0
20260905180020 69 355 0.0 0.9 0.00 0.03 0.03 70 1009.0
20260905174600 69 88 0.0 0.0 0.00 0.03 0.03 70 1009.0
20260905173052 68 111 0.0 2.6 0.00 0.03 0.03 80 1008.9
20260905171513 67 103 0.9 7.0 0.00 0.03 0.03 81 1009.1
20260905170100 67 86 0.0 1.7 0.02 0.03 0.03 87 1009.1
20260905164526 66 117 0.0 0.0 0.03 0.03 0.03 89 1009.2
20260905163114 65 109 0.0 0.0 0.03 0.03 0.03 86 1009.3
20260905161557 66 84 0.0 3.5 0.03 0.03 0.03 82 1009.4
20260905160015 69 96 0.0 2.6 0.00 0.00 0.00 72 1009.3
20260905154548 70 59 0.0 0.0 0.00 0.00 0.00 72 1009.0